Location: Goodsell Observatory
(44.4617°N, 93.1522°W)
Time: 20:56:55
(UTC-06:00)

Daily predictions for brighter satellites

Satellite Brightness Start Highest point End
(mag) Time Altitude Azimuth Time Altitude Azimuth Time Altitude Azimuth
SJ-7 4.3 17:36:24 10° SSE 17:40:25 80° ENE 17:44:26 10° N
Cosmos 1634 Rocket 4.0 17:35:15 10° N 17:41:28 81° E 17:47:38 10° S
SMAP 3.1 17:37:20 10° SSE 17:41:59 90° WSW 17:46:41 10° NNW
Cosmos 1125 Rocket 3.7 17:37:41 10° NNW 17:42:54 78° WSW 17:48:05 10° SSE
Cosmos 371 Rocket 3.5 17:38:29 10° SSW 17:43:17 75° WNW 17:48:07 10° NNE
Cosmos 1703 4.4 17:42:32 10° SE 17:45:41 24° E 17:48:50 10° NE
Cosmos 841 Rocket 4.5 17:41:27 10° SW 17:46:34 50° WNW 17:51:42 10° NNE
USA 116 3.1 17:43:59 10° NNE 17:47:08 87° ESE 17:50:14 10° SSW
CZ-4 R/B 2.0 17:44:55 10° S 17:48:45 59° W 17:52:38 10° NNW
SJ-6B 4.3 17:47:51 10° ESE 17:50:41 18° ENE 17:53:31 10° NNE
Cosmos 1707 Rocket 4.3 17:48:53 10° NNE 17:52:44 30° ENE 17:56:33 10° SE
Cosmos 1300 2.8 17:51:02 10° N 17:54:54 84° W 17:58:43 10° S
Cosmos 2151 2.9 17:50:45 10° S 17:54:56 74° E 17:59:08 10° NNE
COSMO-SKYMED 1 3.1 17:51:23 10° NNE 17:55:28 39° E 17:59:32 10° SSE
YAOGAN 1 2.8 17:51:12 10° S 17:55:31 75° WSW 17:59:53 10° NNW
MONITOR-E 4.2 17:53:49 10° SSE 17:56:57 61° ENE 18:00:05 10° N
Cosmos 2237 Rocket 2.3 17:51:21 10° SSW 17:56:59 88° WNW 18:02:41 10° NNE
Cosmos 2369 Rocket 3.8 17:55:31 10° N 17:58:34 15° NE 18:01:00 11° ENE
Thor Agena Rocket 3.6 17:55:48 10° NNE 18:01:04 88° E 18:06:15 10° SSW
Meteor 1-27 4.3 17:57:05 10° N 18:02:56 78° E 18:08:47 10° SSE
Cosmos 1666 Rocket 4.4 18:01:26 10° SSE 18:05:11 29° E 18:09:00 10° NNE
SL-16 R/B 2.5 18:00:06 10° S 18:05:31 48° ESE 18:10:56 10° NE
Meteor 2-10 4.0 18:00:38 10° N 18:05:46 82° E 18:11:03 10° SSE
Cosmos 44 Rocket 4.5 18:01:38 10° WSW 18:06:29 42° NW 18:11:15 10° NNE
SPOT 3 Rocket 4.2 18:01:31 10° S 18:06:36 62° WSW 18:11:45 10° NNW
COSMOS 2428 4.4 18:02:59 10° WSW 18:07:54 29° NW 18:12:51 10° N
FREGAT/IRIS 4.1 18:06:48 10° ESE 18:09:03 19° ENE 18:11:17 10° NNE
SL-14 R/B 3.6 18:08:04 10° SSW 18:12:00 69° W 18:16:01 10° N
Cosmos 1484 Rocket 2.9 18:09:48 10° SSE 18:13:46 85° WSW 18:17:48 10° NNW
Resurs 01 Rocket 2.9 18:12:43 10° ESE 18:15:54 20° ENE 18:19:05 10° NNE
Cosmos 1340 Rocket 2.7 18:12:07 10° S 18:16:01 78° E 18:19:58 10° NNE
Cosmos 2297 3.7 18:11:07 10° NNW 18:16:52 87° ENE 18:22:36 10° SSE
Cosmos 304 Rocket 3.7 18:12:22 10° SSW 18:17:10 72° ESE 18:21:58 10° NNE
Meteor 1-28 Rocket 3.4 18:16:00 10° NNE 18:19:36 47° E 18:23:12 10° S
CZ-4C R/B 4.2 18:15:55 10° NNW 18:20:09 17° NNE 18:23:27 13° NE
Lacrosse 4 Rocket 1.8 18:18:12 10° NNW 18:22:00 37° NE 18:25:17 13° ESE
SKYMED 3 4.5 18:21:14 10° NNE 18:25:36 83° ESE 18:29:56 10° SSW
Cosmos 2279 Rocket 4.2 18:21:29 10° N 18:27:42 77° W 18:33:55 10° S
Cosmos 1869 3.9 18:25:27 10° N 18:29:09 34° ENE 18:32:51 10° SE
Blok-2BL 4.4 18:26:25 10° NNW 18:29:13 24° NE 18:29:16 24° NE
Aureole 2 Rocket 3.7 18:25:52 10° SW 18:29:36 49° WNW 18:33:38 10° N
FENGYUN 3A 4.2 18:27:29 10° SE 18:32:15 34° ENE 18:37:02 10° N
METEOR-M 4.1 18:27:09 10° SSE 18:32:24 61° ENE 18:37:41 10° N
Cosmos 1470 Rocket 4.4 18:34:35 10° SSE 18:38:13 27° E 18:38:13 27° E
Cosmos 2058 4.0 18:34:49 10° SSW 18:38:46 46° WNW 18:42:45 10° N
NOAA 12 4.0 18:35:42 10° SSE 18:40:56 77° ENE 18:46:13 10° N
Cosmos 773 Rocket 4.1 18:36:12 10° S 18:41:12 53° ESE 18:45:04 17° NE
ATLAS 3B R/B 4.4 18:38:52 10° NNW 18:43:10 16° N 18:45:53 13° NE
Cosmos 1805 Rocket 3.8 18:38:49 10° SSW 18:43:16 75° W 18:47:45 10° N
SKYMED 2 4.0 18:39:18 10° N 18:43:37 64° WNW 18:47:54 10° SSW
Cosmos 2242 Rocket 3.6 18:40:01 10° N 18:44:22 55° ENE 18:48:43 10° SSE
Lacrosse 5 3.5 18:41:58 10° NW 18:45:44 20° N 18:47:19 18° NNE
Cosmos 1461 3.2 18:41:50 10° SW 18:45:58 63° NW 18:48:34 21° NNE
USA 215 3.2 18:40:52 15° ESE 18:46:24 71° NE 18:52:56 10° NW
ATLAS 5 CENTAUR R/B 3.6 18:42:12 10° NNW 18:46:27 21° NNE 18:47:23 20° NE
Nadezhda 4 Rocket 3.9 18:42:36 10° S 18:48:51 76° E 18:55:12 10° N
Cosmos 1626 2.3 18:46:10 10° SSW 18:49:53 75° W 18:53:39 10° N
Cosmos 2026 Rocket 4.5 18:47:18 10° SSE 18:52:46 34° E 18:55:59 21° NE
Sich 1 3.1 18:51:42 10° S 18:56:09 83° W 19:00:36 10° N
Lacrosse 5 rocket 4.3 18:54:45 10° W 18:56:44 14° WSW 18:58:46 10° SSW
BREEZE-M DEB (TANK) 2.1 18:54:49 10° W 18:56:48 44° NW 18:56:48 44° NW
Cosmos 1356 Rocket 3.7 18:54:47 10° SSW 18:58:45 64° WNW 19:02:44 10° N
Aureole 1 Rocket 3.9 18:54:57 10° S 19:00:31 75° ESE 19:07:52 10° NNE
ALOS 2.2 18:58:37 10° SSE 19:03:11 60° ENE 19:07:48 10° N
Cosmos 2219 Rocket 4.4 18:59:14 10° W 19:03:20 20° NW 19:07:27 10° N
Cosmos 1943 Rocket 3.7 19:00:06 10° N 19:02:44 19° NNE 19:02:44 19° NNE
Coronas F rocket 3.7 19:03:23 10° SSW 19:03:52 15° SSW 19:03:52 15° SSW
Cosmos 1633 Rocket 3.2 19:02:12 10° SSW 19:06:36 73° W 19:11:00 10° N
Cosmos 1603 3.6 19:04:47 10° S 19:10:17 60° ESE 19:12:04 41° NE
Cosmos 2333 Rocket 4.3 19:06:01 10° W 19:10:24 22° NW 19:14:47 10° N
Cosmos 1455 3.3 19:06:54 10° NNW 19:10:33 45° W 19:14:12 10° SSW
Cosmos 1092 Rocket 3.9 19:04:56 10° S 19:11:17 82° E 19:17:39 10° N
FengYun 1-2 T 4.1 19:07:24 10° SSE 19:12:56 77° ENE 19:18:28 10° NNW
Cosmos 292 Rocket 3.7 19:09:06 10° S 19:13:46 62° ESE 19:14:08 59° E
Abrixas 4.2 19:12:34 10° W 19:14:25 29° NW 19:14:25 29° NW
Cosmos 972 Rocket 4.2 19:11:31 10° N 19:16:38 51° ENE 19:16:49 51° ENE
BREEZE-M DEB (TANK) 4.4 18:57:47 10° W 19:16:46 62° N 19:18:38 41° ENE
Cosmos 1184 Rocket 4.3 19:17:49 10° SW 19:20:57 37° WNW 19:22:06 27° NNW
Cosmos 1242 Rocket 4.2 19:17:34 10° NNW 19:19:09 25° NNW 19:19:09 25° NNW
SJ-6B 4.1 19:21:06 10° S 19:25:01 43° W 19:29:00 10° NNW
Cosmos 1862 Rocket 3.7 19:23:39 10° N 19:27:20 62° N 19:27:20 62° N
Spot 2 Rocket 3.4 19:24:54 10° SSE 19:29:57 85° WSW 19:35:02 10° NNW
USA 229 DEB 3.7 19:24:44 10° SW 19:31:36 85° NW 19:34:39 37° NNE
USA 229 3.6 19:24:49 10° SW 19:31:42 86° NW 19:34:42 38° NE
Iridium 4 Rocket 3.6 19:29:38 10° SSW 19:33:59 56° W 19:37:08 17° N
Cosmos 2195 Rocket 4.3 19:28:20 10° S 19:34:26 81° E 19:40:37 10° N
Cosmos 2369 Rocket 2.3 19:38:01 10° NNW 19:42:51 60° NNE 19:42:51 60° NNE
SL-16 R/B 3.9 19:44:58 10° WSW 19:49:51 29° NW 19:53:50 14° N
Resurs 01 Rocket 2.6 19:49:46 25° SSW 19:52:03 46° W 19:56:21 10° NNW
Cosmos 1417 Rocket 4.3 19:51:41 10° N 19:57:54 87° W 19:58:05 84° SSW
Lacrosse 4 Rocket 3.7 19:57:24 10° WNW 20:00:29 21° WSW 20:01:45 18° SW
Cosmos 1680 Rocket 4.0 19:57:39 10° SW 20:02:30 57° W 20:02:30 57° W
Cosmos 1655 Rocket 4.1 20:02:12 10° SSW 20:08:34 76° W 20:09:16 68° NNW
CZ-4C R/B 3.7 20:04:06 10° NNW 20:08:40 35° N 20:08:40 35° N
NOSS 3-1 (C) 4.5 20:17:14 10° SW 20:20:20 35° SW 20:20:20 35° SW
USA 215 4.3 20:28:15 34° SSW 20:29:41 38° SW 20:35:43 10° WNW
Lacrosse 5 4.1 20:25:08 10° NW 20:26:32 18° NNW 20:26:32 18° NNW
ATLAS 5 CENTAUR R/B 3.8 20:26:14 10° NW 20:28:57 29° NNW 20:28:57 29° NNW
ATLAS 3B R/B 4.2 20:29:56 10° NNW 20:33:09 24° N 20:33:09 24° N
Cosmos 1943 Rocket 4.4 20:42:59 10° NNW 20:44:17 18° NNW 20:44:17 18° NNW
